Back to catalog

FREGAT DEB

AliveUNKNOWN
NORAD 45820·DEBRIS·🇷🇺 Russia

Launched Jul 18, 2011 from Baikonur Cosmodrome

Loading…

Next Passes (next 24 hours)

TLE

FreshSource: Space-Track

Epoch: Sep 14, 2026, 02:49 UTC

1 45820U 11037BE  26257.11802920  .00002351  00000-0  15048-2 0  9997
2 45820  51.5233 159.3506 1485401 208.2243 142.9688 11.77700332263980

Track FREGAT DEB in real time with AllMySat

Download on the App Store